Flag for Germany Weather past 2 weeks in Zweibrücken, Rhineland-Palatinate, Germany

Now
57 °F

Partly cloudy.


Feels Like: 55 °F
Forecast: 49 / 68 °F
Wind: 12 mph from West

Location: Saarbruecken / Ensheim

Current Time: Jul 28, 2015 at 6:19:04 AM

Latest Report: Jul 28, 2015 at 5:20 AM


Visibility: N/A

Pressure: 29.80 "Hg

Humidity: 82%

Dew point: 52 °F

Location of ZweibrückenLocation

Historic Weather in Zweibrücken — Graph

°F

Zweibrücken temperature yesterday

Maximum temperature yesterday: 68 °F (at 3:20 PM)
Minimum temperature yesterday: 57 °F (at 12:20 AM)
Average temperature yesterday: 62 °F

Past Weeks' High & Low Weather Summary

 TemperatureHumidityPressure
High93 °F (Jul 17, 4:50 PM)94% (Jul 25, 3:50 AM)30.15 "Hg (Jul 25, 3:50 AM)
Low45 °F (Jul 26, 5:20 AM)21% (Jul 16, 6:20 PM)29.68 "Hg (Jul 24, 8:50 PM)
Average70 °F61%29.97 "Hg
* Reported Jul 13 5:20 AM — Jul 28 5:20 AM, Zweibrücken, Weather by CustomWeather, © 2015

Note: Actual official high and low records may vary slightly from our data, if they occured in-between our weather recording intervals... More about our weather records

Advertising

Zweibrücken weather history for previous 24 hours

 ConditionsComfort  
Time TempWeatherWind HumidityBarometerVisibility
5:20 AM
Tue, Jul 28
57 °FPartly cloudy.12 mph82%29.80 "HgN/A
4:50 AM57 °FLight rain. Partly cloudy.12 mph82%29.80 "HgN/A
4:20 AM59 °FPassing clouds.14 mph77%29.80 "HgN/A
3:50 AM63 °FPassing clouds.16 mph59%29.77 "HgN/A
3:20 AM63 °FClear.21 mph59%29.77 "Hg10 mi
2:50 AM61 °FClear.17 mph63%29.77 "Hg10 mi
2:20 AM61 °FClear.15 mph63%29.77 "Hg10 mi
1:50 AM61 °FClear.14 mph63%29.77 "Hg10 mi
1:20 AM63 °FClear.15 mph59%29.77 "Hg10 mi
12:50 AM63 °FClear.15 mph59%29.77 "Hg10 mi
12:20 AM63 °FClear.10 mph64%29.77 "Hg10 mi
11:50 PM
Mon, Jul 27
64 °FClear.15 mph60%29.77 "Hg10 mi
11:20 PM64 °FClear.14 mph60%29.77 "Hg10 mi
10:50 PM64 °FClear.12 mph60%29.77 "Hg10 mi
10:20 PM64 °FPassing clouds.12 mph60%29.77 "HgN/A
9:50 PM64 °FScattered clouds.12 mph60%29.77 "HgN/A
9:20 PM66 °FScattered clouds.15 mph56%29.77 "HgN/A
8:50 PM66 °FScattered clouds.20 mph56%29.77 "HgN/A
8:20 PM66 °FScattered clouds.17 mph56%29.77 "HgN/A
7:50 PM68 °FScattered clouds.21 mph49%29.77 "HgN/A
7:20 PM68 °FScattered clouds.18 mph53%29.77 "HgN/A
6:50 PM68 °FScattered clouds.21 mph49%29.77 "HgN/A
6:20 PM68 °FScattered clouds.22 mph53%29.77 "HgN/A
5:50 PM68 °FScattered clouds.23 mph53%29.77 "HgN/A
5:20 PM68 °FScattered clouds.25 mph53%29.77 "HgN/A
4:50 PM68 °FScattered clouds.26 mph53%29.77 "HgN/A
4:20 PM68 °FScattered clouds.17 mph56%29.77 "HgN/A
3:50 PM66 °FScattered clouds.28 mph56%29.77 "HgN/A
3:20 PM68 °FScattered clouds.24 mph53%29.74 "HgN/A
2:50 PM66 °FScattered clouds.24 mph60%29.74 "HgN/A
2:20 PM66 °FScattered clouds.24 mph56%29.74 "HgN/A
1:50 PM66 °FBroken clouds.18 mph60%29.74 "HgN/A
1:20 PM66 °FBroken clouds.25 mph64%29.74 "HgN/A
12:50 PM64 °FBroken clouds.28 mph64%29.74 "HgN/A
12:20 PM63 °FBroken clouds.21 mph73%29.74 "HgN/A
11:50 AM63 °FBroken clouds.23 mph73%29.74 "HgN/A
11:20 AM61 °FBroken clouds.21 mph83%29.74 "HgN/A
10:50 AM61 °FBroken clouds.21 mph83%29.74 "HgN/A
10:20 AM59 °FBroken clouds.21 mph88%29.74 "HgN/A
9:50 AM57 °FBroken clouds.18 mph94%29.74 "HgN/A
9:20 AM57 °FPartly sunny.24 mph94%29.71 "HgN/A
8:50 AM59 °FRain showers. Broken clouds.18 mph88%29.71 "Hg2 mi
8:20 AM59 °FPartly sunny.18 mph88%29.68 "HgN/A
7:50 AM59 °FPartly sunny.18 mph88%29.68 "HgN/A
7:20 AM59 °FPartly sunny.17 mph88%29.68 "HgN/A
6:20 AM59 °FLight rain. Passing clouds.14 mph88%29.68 "HgN/A
Weather by CustomWeather, © 2015

See weather overviewHow to use our weather pages